�N����,����,�~����,�C��,���x,�C��,����,���ϕ���,�ő�u�ԕ���,�ő厞����,���˗�,�I�_���x,�n�����x,�ő啗���N��,DTYPE
"23/07/11","00:10",0.0,22.9,93.5,1005.0,288.8,0.8,1.6,306.8,0.00,21.8,24.4,"00:06:00",1
"23/07/11","00:20",0.0,22.9,93.6,1005.2,285.2,0.7,1.3,311.5,0.00,21.9,24.6,"00:19:52",1
"23/07/11","00:30",0.0,23.0,93.7,1005.0,327.4,1.5,2.2,342.4,0.00,22.0,24.6,"00:22:48",1
"23/07/11","00:40",0.0,23.0,93.8,1005.2,318.2,1.3,2.2,327.9,0.00,22.0,24.5,"00:38:40",1
"23/07/11","00:50",0.0,22.8,93.9,1005.2,286.5,0.8,1.4,299.8,0.00,21.8,24.4,"00:40:08",1
"23/07/11","01:00",0.0,22.8,94.0,1005.0,292.0,0.8,1.2,314.4,0.00,21.8,24.3,"00:59:52",1
"23/07/11","01:10",0.0,22.9,94.2,1005.0,318.1,1.3,1.8,324.1,0.00,22.0,24.3,"01:05:52",1
"23/07/11","01:20",0.0,22.7,94.2,1004.8,294.0,0.8,1.1,309.9,0.00,21.8,24.3,"01:11:52",1
"23/07/11","01:30",0.0,22.7,94.3,1005.0,295.2,1.1,1.6,299.8,0.00,21.8,24.4,"01:26:08",1
"23/07/11","01:40",0.0,22.6,94.3,1005.0,285.4,0.7,1.2,315.9,0.00,21.7,24.3,"01:38:56",1
"23/07/11","01:50",0.0,22.7,94.5,1005.0,302.8,1.1,2.1,345.5,0.00,21.8,24.4,"01:48:48",1
"23/07/11","02:00",0.0,22.8,94.6,1005.2,331.2,1.1,1.9,335.3,0.00,21.9,24.3,"01:51:04",1
"23/07/11","02:10",0.0,22.7,94.6,1005.2,313.3,1.2,2.5,325.3,0.00,21.8,24.1,"02:07:20",1
"23/07/11","02:20",0.0,22.7,94.7,1005.0,289.4,1.0,1.6,309.8,0.00,21.8,24.3,"02:10:24",1
"23/07/11","02:30",0.0,22.6,94.8,1004.8,305.5,0.7,1.2,333.8,0.00,21.8,24.1,"02:29:28",1
"23/07/11","02:40",0.0,22.5,94.8,1005.0,315.1,1.2,1.6,316.2,0.00,21.7,24.4,"02:34:48",1
"23/07/11","02:50",0.0,22.4,94.9,1005.2,284.9,0.3,1.0,302.0,0.00,21.6,24.2,"02:40:08",1
"23/07/11","03:00",0.0,22.4,94.9,1005.0,325.4,1.0,1.4,325.6,0.00,21.6,24.2,"02:55:04",1
"23/07/11","03:10",0.0,22.5,95.1,1005.2,330.2,1.0,1.6,346.2,0.00,21.7,24.1,"03:09:04",1
"23/07/11","03:20",0.0,22.5,95.0,1005.2,295.1,0.8,1.4,341.9,0.00,21.7,24.2,"03:10:40",1
"23/07/11","03:30",0.0,22.4,95.1,1005.2,291.2,0.8,1.2,307.0,0.00,21.6,24.0,"03:26:40",1
"23/07/11","03:40",0.0,22.4,95.2,1005.0,290.2,1.1,1.6,335.0,0.00,21.6,24.0,"03:39:04",1
"23/07/11","03:50",0.0,22.4,95.2,1005.0,317.6,0.8,2.0,335.0,0.00,21.6,24.1,"03:41:04",1
"23/07/11","04:00",0.0,22.3,95.3,1005.2,320.6,1.1,1.4,317.8,0.00,21.6,24.0,"03:57:12",1
"23/07/11","04:10",0.0,22.2,95.4,1005.2,285.6,0.8,1.1,270.7,0.00,21.5,24.2,"04:06:00",1
"23/07/11","04:20",0.0,22.2,95.4,1005.5,294.0,0.8,1.2,314.7,0.00,21.5,24.0,"04:19:44",1
"23/07/11","04:30",0.0,22.3,95.4,1005.2,293.2,0.8,1.1,302.6,0.00,21.6,23.8,"04:20:08",1
"23/07/11","04:40",0.0,22.3,95.4,1005.2,324.9,0.8,1.6,325.0,0.00,21.6,23.8,"04:31:20",1
"23/07/11","04:50",0.0,22.2,95.5,1005.2,300.5,0.8,1.3,315.8,0.00,21.5,23.8,"04:44:40",1
"23/07/11","05:00",0.0,22.2,95.6,1005.0,298.8,0.8,1.2,320.2,0.00,21.5,23.9,"04:59:04",1
"23/07/11","05:10",0.0,22.2,95.6,1005.0,329.7,1.1,1.8,340.1,0.00,21.5,23.8,"05:02:56",1
"23/07/11","05:20",0.0,22.3,95.7,1005.0,290.8,1.0,1.2,334.3,0.00,21.6,23.7,"05:10:40",1
"23/07/11","05:30",0.0,22.2,95.7,1005.2,289.4,1.0,1.2,301.8,0.00,21.5,23.7,"05:26:08",1
"23/07/11","05:40",0.0,22.3,95.8,1005.2,294.2,0.8,1.6,326.7,0.00,21.6,23.6,"05:39:28",1
"23/07/11","05:50",0.0,22.3,95.8,1005.0,294.9,1.0,1.8,330.1,0.00,21.6,23.7,"05:40:24",1
"23/07/11","06:00",0.0,22.4,95.9,1005.2,293.8,1.1,1.6,318.5,0.00,21.8,23.6,"05:55:52",1
"23/07/11","06:10",0.0,23.6,95.9,1005.5,313.0,0.5,1.2,323.5,0.03,22.9,23.7,"06:07:10",1
"23/07/11","06:20",0.0,23.9,95.9,1005.2,282.4,0.7,1.2,251.2,0.05,23.2,23.7,"06:16:48",1
"23/07/11","06:30",0.0,24.7,95.9,1005.0,248.9,0.3,0.9,252.0,0.07,24.0,23.7,"06:20:32",1
"23/07/11","06:40",0.0,25.4,95.7,1005.2,344.0,0.2,1.1,354.6,0.09,24.7,23.7,"06:39:20",1
"23/07/11","06:50",0.0,25.8,95.4,1004.8,28.1,0.3,0.9,334.2,0.08,25.0,23.7,"06:40:32",1
"23/07/11","07:00",0.0,25.9,95.2,1004.8,157.6,0.2,0.8,202.7,0.09,25.1,23.8,"06:55:52",1
"23/07/11","07:10",0.0,26.0,94.6,1005.0,166.1,0.1,0.8,145.0,0.09,25.1,23.7,"07:08:08",1
"23/07/11","07:20",0.0,25.9,94.4,1005.2,354.2,0.6,1.7,0.1,0.11,25.0,23.7,"07:15:28",1
"23/07/11","07:30",0.0,25.6,94.1,1005.0,356.9,0.6,1.8,348.0,0.08,24.6,23.8,"07:26:24",1
"23/07/11","07:40",0.0,26.0,93.3,1005.2,347.9,0.5,1.6,7.5,0.17,24.9,23.6,"07:30:02",1
"23/07/11","07:50",0.0,26.6,92.2,1005.2,348.2,0.7,1.9,347.1,0.22,25.3,23.9,"07:47:44",1
"23/07/11","08:00",0.0,27.1,90.5,1004.8,344.9,0.5,1.6,348.7,0.22,25.4,23.7,"07:59:20",1
"23/07/11","08:10",0.0,28.0,88.5,1005.5,9.1,0.7,1.4,351.0,0.27,26.0,23.8,"08:01:44",1
"23/07/11","08:20",0.0,29.1,84.4,1005.7,48.0,0.3,1.4,25.3,0.26,26.2,23.8,"08:18:08",1
"23/07/11","08:30",0.0,30.0,79.8,1006.2,120.6,0.7,1.9,112.9,0.32,26.2,23.7,"08:22:24",1
"23/07/11","08:40",0.0,30.6,76.8,1006.7,144.5,0.8,1.8,146.0,0.33,26.1,23.7,"08:30:24",1
"23/07/11","08:50",0.0,30.5,75.8,1006.9,135.8,1.2,2.4,145.9,0.35,25.8,23.6,"08:48:48",1
"23/07/11","09:00",0.0,30.0,76.5,1006.7,167.6,1.6,3.1,120.7,0.34,25.5,23.9,"08:56:40",1
"23/07/11","09:10",0.0,30.3,77.0,1006.4,146.6,1.3,2.6,167.1,0.33,25.9,24.1,"09:04:00",1
"23/07/11","09:20",0.0,30.3,77.1,1006.4,168.8,1.7,2.8,210.5,0.40,25.9,24.0,"09:16:40",1
"23/07/11","09:30",0.0,31.0,76.1,1006.2,156.7,1.5,3.4,316.3,0.44,26.3,24.1,"09:23:52",1
"23/07/11","09:40",0.0,31.3,72.4,1006.4,30.4,1.3,3.2,332.8,0.37,25.8,24.1,"09:36:56",1
"23/07/11","09:50",0.0,30.9,69.9,1006.4,2.6,1.2,3.9,325.6,0.21,24.8,24.0,"09:46:16",1
"23/07/11","10:00",0.0,30.5,68.8,1006.0,299.9,1.5,3.2,358.6,0.18,24.2,24.0,"09:53:28",1
"23/07/11","10:10",0.0,30.5,70.5,1005.5,317.5,1.2,3.5,343.1,0.21,24.6,24.3,"10:01:52",1
"23/07/11","10:20",0.0,31.0,71.5,1005.0,252.4,1.1,3.3,327.1,0.20,25.3,24.2,"10:15:36",1
"23/07/11","10:30",0.0,30.9,70.2,1005.2,229.5,1.1,2.9,202.0,0.17,24.9,24.2,"10:23:20",1
"23/07/11","10:40",0.0,31.5,70.1,1004.8,207.8,1.2,3.3,229.8,0.28,25.4,24.3,"10:34:16",1
"23/07/11","10:50",0.2,31.5,68.4,1005.2,82.3,0.8,2.0,188.8,0.20,25.0,24.3,"10:45:36",1
"23/07/11","11:00",0.0,31.9,66.0,1005.0,109.1,0.8,2.4,303.0,0.30,24.8,24.5,"10:56:08",1
"23/07/11","11:10",0.0,32.6,65.7,1005.5,50.1,0.8,1.9,355.6,0.31,25.4,24.3,"11:06:16",1
"23/07/11","11:20",0.0,33.1,64.7,1005.2,30.5,0.6,2.0,5.8,0.33,25.6,24.5,"11:19:04",1
"23/07/11","11:30",0.0,33.7,64.4,1005.2,274.0,1.0,2.6,344.4,0.52,26.1,24.5,"11:25:04",1
"23/07/11","11:40",0.0,33.4,60.5,1005.5,247.5,1.2,3.3,220.8,0.36,24.8,24.5,"11:30:24",1
"23/07/11","11:50",0.0,32.2,61.4,1004.8,319.8,1.6,4.9,345.9,0.21,23.9,24.6,"11:47:44",1
"23/07/11","12:00",0.0,32.8,62.7,1004.8,355.8,1.1,2.7,352.8,0.29,24.8,24.7,"11:53:20",1
"23/07/11","12:10",0.0,32.9,62.1,1005.0,172.7,1.7,4.3,214.3,0.40,24.7,24.8,"12:07:04",1
"23/07/11","12:20",0.0,33.3,61.5,1004.8,234.2,1.0,2.8,316.4,0.31,24.9,24.8,"12:16:32",1
"23/07/11","12:30",0.0,33.1,60.6,1004.3,163.0,0.5,2.7,204.8,0.14,24.5,24.9,"12:21:28",1
"23/07/11","12:40",0.0,33.7,60.7,1004.5,189.2,1.7,3.9,227.3,0.57,25.1,24.9,"12:36:16",1
"23/07/11","12:50",0.0,33.2,60.4,1004.5,213.5,2.1,4.9,238.5,0.35,24.5,25.0,"12:42:16",1
"23/07/11","13:00",0.0,33.4,60.2,1004.5,231.0,2.2,5.0,211.8,0.53,24.7,24.7,"12:50:24",1
"23/07/11","13:10",0.0,33.9,61.0,1004.8,230.8,2.1,4.9,229.1,0.58,25.4,25.1,"13:00:32",1
"23/07/11","13:20",0.0,34.4,58.0,1005.5,238.4,1.6,3.6,235.7,0.52,25.0,25.0,"13:11:04",1
"23/07/11","13:30",0.0,33.9,59.0,1005.2,252.2,2.3,4.8,210.9,0.49,24.8,25.3,"13:26:32",1
"23/07/11","13:40",0.0,33.9,56.0,1004.8,263.4,1.6,4.0,199.8,0.49,23.9,25.1,"13:36:24",1
"23/07/11","13:50",0.0,33.8,55.8,1004.8,273.0,1.6,7.4,235.8,0.40,23.8,25.2,"13:42:16",1
"23/07/11","14:00",0.0,33.7,56.4,1004.8,267.6,2.0,4.5,248.8,0.42,23.9,25.3,"13:56:48",1
"23/07/11","14:10",0.0,33.9,55.5,1004.5,242.3,2.3,5.0,239.4,0.49,23.8,25.4,"14:09:44",1
"23/07/11","14:20",0.0,34.5,55.2,1004.3,237.5,1.7,4.2,222.9,0.47,24.2,25.6,"14:16:32",1
"23/07/11","14:30",0.0,34.6,53.8,1004.5,236.3,1.7,3.4,226.6,0.46,23.9,25.6,"14:29:44",1
"23/07/11","14:40",0.0,34.6,52.4,1004.1,264.3,2.0,5.5,230.5,0.41,23.5,25.6,"14:39:52",1
"23/07/11","14:50",0.0,34.6,52.3,1003.8,238.3,2.0,5.6,207.8,0.39,23.4,25.5,"14:40:48",1
"23/07/11","15:00",0.0,34.3,53.2,1003.4,239.6,2.2,5.2,229.6,0.36,23.4,25.8,"14:59:44",1
"23/07/11","15:10",0.0,34.3,53.2,1003.6,256.3,1.6,4.2,226.4,0.36,23.4,25.7,"15:00:08",1
"23/07/11","15:20",0.0,34.4,52.9,1003.8,249.7,1.8,5.1,215.5,0.35,23.4,25.7,"15:18:48",1
"23/07/11","15:30",0.0,34.4,53.0,1003.8,274.0,1.8,4.8,232.4,0.31,23.5,25.9,"15:23:12",1
"23/07/11","15:40",0.0,34.1,53.9,1003.8,320.8,2.1,5.5,338.3,0.32,23.5,25.7,"15:32:16",1
"23/07/11","15:50",0.0,33.9,53.8,1003.4,300.3,2.0,4.3,289.3,0.28,23.3,25.8,"15:48:00",1
"23/07/11","16:00",0.0,33.8,54.2,1003.4,286.4,2.0,4.4,358.2,0.27,23.3,25.9,"15:50:16",1
"23/07/11","16:10",0.0,33.3,54.1,1003.1,300.8,1.7,4.3,331.2,0.15,22.8,25.8,"16:07:52",1
"23/07/11","16:20",0.0,33.4,53.0,1002.9,310.7,1.8,5.1,223.9,0.22,22.6,26.1,"16:19:28",1
"23/07/11","16:30",0.0,33.4,54.6,1002.9,265.9,1.7,5.6,237.2,0.18,23.0,25.9,"16:22:24",1
"23/07/11","16:40",0.0,33.4,54.3,1002.9,261.8,1.6,4.2,245.6,0.16,23.0,26.0,"16:36:56",1
"23/07/11","16:50",0.0,33.4,54.2,1002.9,310.0,1.5,3.4,353.2,0.17,22.9,25.9,"16:46:56",1
"23/07/11","17:00",0.0,32.8,54.7,1002.9,270.7,1.8,4.2,231.0,0.10,22.5,26.0,"16:54:32",1
"23/07/11","17:10",0.0,32.2,55.6,1002.2,283.0,1.6,3.4,238.7,0.04,22.2,26.0,"17:08:16",1
"23/07/11","17:20",0.0,31.9,57.0,1002.2,260.1,1.5,4.5,319.1,0.03,22.4,26.0,"17:14:24",1
"23/07/11","17:30",0.0,31.8,58.0,1002.4,260.0,1.2,3.4,233.3,0.03,22.6,25.8,"17:25:12",1
"23/07/11","17:40",0.0,31.7,58.0,1001.9,269.9,1.6,3.9,228.4,0.04,22.5,25.8,"17:31:44",1
"23/07/11","17:50",0.0,31.7,58.6,1002.4,233.9,1.3,3.2,271.9,0.03,22.6,25.9,"17:40:16",1
"23/07/11","18:00",0.0,31.4,60.1,1001.9,258.0,1.1,4.2,215.4,0.02,22.8,25.9,"17:55:20",1
"23/07/11","18:10",0.0,31.0,62.8,1002.2,224.1,1.3,4.1,206.8,0.00,23.1,25.9,"18:01:36",1
"23/07/11","18:20",0.0,30.6,63.9,1001.9,236.2,1.3,3.6,220.7,0.00,23.0,25.7,"18:18:40",1
"23/07/11","18:30",0.0,30.5,64.8,1001.9,240.3,1.5,2.8,236.9,0.00,23.2,25.8,"18:20:32",1
"23/07/11","18:40",0.0,30.1,66.4,1001.5,233.2,0.6,1.6,237.1,0.00,23.2,25.7,"18:30:24",1
"23/07/11","18:50",0.0,29.8,67.6,1001.5,237.9,1.0,2.1,227.9,0.00,23.2,25.9,"18:43:04",1
"23/07/11","19:00",0.0,29.5,68.5,1001.0,238.5,0.6,1.9,231.5,0.00,23.1,25.7,"18:59:44",1
"23/07/11","19:10",0.0,29.5,70.4,1001.5,314.2,1.1,2.4,242.6,0.00,23.6,25.8,"19:02:00",1
"23/07/11","19:20",0.0,28.5,73.9,1001.9,346.7,0.8,1.6,350.9,0.00,23.4,25.7,"19:16:40",1
"23/07/11","19:30",0.0,28.2,76.6,1001.9,348.6,0.8,1.7,339.7,0.00,23.7,25.7,"19:29:36",1
"23/07/11","19:40",0.0,27.6,78.3,1001.9,335.9,0.7,1.1,325.1,0.00,23.5,25.7,"19:38:40",1
"23/07/11","19:50",0.0,27.2,79.5,1002.2,331.2,0.8,1.9,342.3,0.00,23.4,25.5,"19:45:04",1
"23/07/11","20:00",0.0,27.2,80.5,1002.4,343.8,0.8,1.2,315.4,0.00,23.6,25.6,"19:50:16",1
"23/07/11","20:10",0.0,26.7,81.1,1002.4,296.8,0.2,1.0,356.8,0.00,23.2,25.6,"20:01:20",1
"23/07/11","20:20",0.0,26.4,82.3,1002.6,339.0,0.5,1.0,326.7,0.00,23.2,25.7,"20:12:00",1
"23/07/11","20:30",0.0,26.1,83.2,1002.6,339.0,0.5,1.4,341.8,0.00,23.1,25.5,"20:20:02",1
"23/07/11","20:40",0.0,26.2,83.6,1003.1,332.5,1.2,2.0,343.8,0.00,23.2,25.5,"20:34:32",1
"23/07/11","20:50",0.0,26.1,83.7,1002.9,334.5,1.1,2.0,313.9,0.00,23.2,25.6,"20:47:44",1
"23/07/11","21:00",0.0,26.1,83.7,1003.1,311.5,0.8,1.7,342.1,0.00,23.2,25.5,"20:57:44",1
"23/07/11","21:10",0.0,26.1,83.7,1002.6,344.0,1.2,2.0,326.2,0.00,23.2,25.4,"21:01:20",1
"23/07/11","21:20",0.0,25.9,84.1,1003.4,346.9,0.8,1.4,341.6,0.00,23.0,25.4,"21:10:56",1
"23/07/11","21:30",0.0,25.5,84.5,1003.4,319.2,0.2,0.9,248.9,0.00,22.7,25.5,"21:26:24",1
"23/07/11","21:40",0.0,25.1,84.9,1003.4,318.3,0.1,0.5,334.4,0.00,22.4,25.2,"21:33:36",1
"23/07/11","21:50",0.0,25.1,85.7,1003.6,314.0,0.6,1.4,348.3,0.00,22.6,25.2,"21:48:48",1
"23/07/11","22:00",0.0,25.1,86.5,1003.6,329.8,0.8,1.8,331.3,0.00,22.7,25.3,"21:58:48",1
"23/07/11","22:10",0.0,24.9,87.1,1003.4,334.2,0.8,1.7,345.7,0.00,22.6,25.2,"22:00:40",1
"23/07/11","22:20",0.0,24.9,87.6,1003.8,304.1,0.6,1.2,301.3,0.00,22.7,25.0,"22:17:12",1
"23/07/11","22:30",0.0,24.9,87.9,1003.4,277.0,0.8,1.6,246.6,0.00,22.8,25.1,"22:21:20",1
"23/07/11","22:40",0.0,24.9,88.1,1003.6,290.4,1.1,2.2,320.4,0.00,22.8,25.0,"22:38:48",1
"23/07/11","22:50",0.0,24.9,88.1,1003.6,319.5,1.2,1.9,305.4,0.00,22.8,24.8,"22:46:40",1
"23/07/11","23:00",0.0,24.8,88.2,1003.6,309.1,1.2,2.4,322.7,0.00,22.8,24.9,"22:52:40",1
"23/07/11","23:10",0.0,24.7,88.3,1003.6,306.1,1.0,1.7,340.6,0.00,22.7,25.0,"23:04:56",1
"23/07/11","23:20",0.0,24.5,88.4,1003.6,316.7,0.7,1.4,322.4,0.00,22.5,25.0,"23:10:08",1
"23/07/11","23:30",0.0,24.4,88.8,1003.6,315.6,0.8,2.1,346.4,0.00,22.5,24.9,"23:29:28",1
"23/07/11","23:40",0.0,24.4,88.9,1003.4,314.5,0.7,1.3,331.9,0.00,22.5,25.0,"23:30:08",1
"23/07/11","23:50",0.0,24.4,89.1,1003.4,301.9,0.7,1.3,305.2,0.00,22.5,24.8,"23:45:52",1
"23/07/11","24:00",0.0,24.3,89.3,1003.4,295.9,1.0,1.7,339.2,0.00,22.5,25.1,"23:59:52",1
